Voyager Of The Seas — C6SE5 — position and weather

sailwx.info

Track history (hours):
 
Tides and Currents Weather Stations Pressure Air Temp Water Temp Dewpoint Dewpoint Depression Visibility Wind Speed Wind Dir Waves Ship Positions

Voyager Of The Seas

Operator: Royal Caribbean Cruises Ltd

Last reported at 2014-Jul-27 14:09 UTC. Time now 2014-Jul-28 04:20 UTC.
Position N 37°06' E 125°03'.

Type: Passenger vessel. MMSI: 311317000.

Date/timePositionNaut miles runAvg speedWind from/ knotsBaromVisibWave heightAir tempDewpointWater temp
2014-Jul-27 14:09N 37°06' E 125°03'811.9
2014-Jul-27 13:30N 37°09' E 124°54'1512.4
2014-Jul-27 12:20N 37°14' E 124°37'1012.5
2014-Jul-27 11:33N 37°19' E 124°26'1412.4
2014-Jul-27 10:25N 37°24' E 124°10'4912.1
2014-Jul-27 06:21N 37°43' E 123°13'1011.9
2014-Jul-27 05:31N 37°46' E 123°01'1212.1
2014-Jul-27 04:31N 37°51' E 122°47'1212.2
2014-Jul-27 03:33N 37°55' E 122°33'1312.4
2014-Jul-27 02:32N 37°59' E 122°18'4112.0
2014-Jul-26 23:07N 38°17' E 121°31'711.6
2014-Jul-26 22:33N 38°21' E 121°24'12812.8
2014-Jul-26 12:33N 38°48' E 118°43'1414.4
2014-Jul-26 11:33N 38°49' E 118°25'1313.4
2014-Jul-26 10:33N 38°54' E 118°09'1312.8
2014-Jul-26 09:33N 38°57' E 117°53'3 3.2
2014-Jul-26 08:31N 38°59' E 117°49'0 0.0
2014-Jul-26 07:28N 38°59' E 117°49'0 0.0
2014-Jul-26 06:31N 38°59' E 117°49'0 0.0
2014-Jul-26 05:28N 38°59' E 117°49'0 0.0
2014-Jul-26 04:31N 38°59' E 117°49'0 0.0
2014-Jul-26 03:28N 38°59' E 117°49'0 0.0
2014-Jul-26 02:31N 38°59' E 117°49'0 0.0
2014-Jul-26 01:31N 38°59' E 117°49'0 0.0
2014-Jul-26 00:31N 38°59' E 117°49'0 0.0
2014-Jul-25 23:31N 38°59' E 117°49'0 0.0
2014-Jul-25 22:28N 38°59' E 117°49'8 8.3
2014-Jul-25 21:34N 38°57' E 117°58'1312.7
2014-Jul-25 20:33N 38°52' E 118°14'19017.0
2014-Jul-25 09:24N 38°04' E 122°09'1518.2
2014-Jul-25 08:33N 37°55' E 122°25'1818.3
2014-Jul-25 07:33N 37°47' E 122°46'34914.4
2014-Jul-24 07:20N 35°02' E 129°08'3 4.3
2014-Jul-24 06:32N 35°05' E 129°05'0 0.0
2014-Jul-24 05:32N 35°05' E 129°05'0 0.0
2014-Jul-24 04:32N 35°05' E 129°05'0 0.0
2014-Jul-24 03:20N 35°05' E 129°05'0 0.0
2014-Jul-24 02:32N 35°05' E 129°05'0 0.0
2014-Jul-24 01:20N 35°05' E 129°05'0 0.0
2014-Jul-24 00:29N 35°05' E 129°05'0 0.0
2014-Jul-23 23:29N 35°05' E 129°05'0 0.0
2014-Jul-23 22:32N 35°05' E 129°05'0 0.0
2014-Jul-23 21:32N 35°05' E 129°05'5 5.1
2014-Jul-23 20:31N 35°01' E 129°09'418 8.5
2014-Jul-21 19:33N 38°18' E 121°29'2818.9
2014-Jul-21 18:06N 38°30' E 120°58'1419.1
2014-Jul-21 17:21N 38°33' E 120°40'1518.6
2014-Jul-21 16:33N 38°37' E 120°22'7517.4
2014-Jul-21 12:14N 38°48' E 118°47'1316.6
2014-Jul-21 11:26N 38°49' E 118°30'1516.5
2014-Jul-21 10:33N 38°52' E 118°12'1413.9
2014-Jul-21 09:33N 38°57' E 117°55'5 4.9
2014-Jul-21 08:33N 38°59' E 117°49'0 0.0
2014-Jul-21 07:33N 38°59' E 117°49'0 0.0
2014-Jul-21 06:33N 38°59' E 117°49'0 0.0
2014-Jul-21 05:33N 38°59' E 117°49'0 0.0
2014-Jul-21 04:33N 38°59' E 117°49'0 0.0
2014-Jul-21 03:33N 38°59' E 117°49'0 0.0
2014-Jul-21 02:33N 38°59' E 117°49'0 0.0
2014-Jul-21 01:33N 38°59' E 117°49'0 0.0
2014-Jul-21 00:33N 38°59' E 117°49'0 0.0
2014-Jul-20 23:33N 38°59' E 117°49'0 0.1
2014-Jul-20 22:33N 38°58' E 117°49'1010.1
2014-Jul-20 21:33N 38°56' E 118°02'9 8.6
2014-Jul-20 20:33N 38°53' E 118°12'14713.1
2014-Jul-20 09:20N 38°28' E 121°17'1113.8
2014-Jul-20 08:33N 38°23' E 121°30'1413.7
2014-Jul-20 07:33N 38°15' E 121°44'1413.9
2014-Jul-20 06:33N 38°08' E 121°59'1413.9
2014-Jul-20 05:33N 38°02' E 122°15'1414.2
2014-Jul-20 04:32N 37°54' E 122°30'2014.6
2014-Jul-20 03:11N 37°43' E 122°51'2314.1
2014-Jul-20 01:33N 37°25' E 123°09'13 0.3
2014-Jul-18 01:00N 37°12' E 123°12'6618.7 210 / 71014.0 0.3 25.020.723.0
2014-Jul-17 21:28N 38°00' E 122°16'1718.2
2014-Jul-17 20:33N 38°08' E 121°57'2217.8
2014-Jul-17 19:20N 38°18' E 121°32'1417.3
2014-Jul-17 18:32N 38°24' E 121°16'5217.7
2014-Jul-17 15:33N 38°38' E 120°12'  
Track history (hours):
 
Tides and Currents Weather Stations Pressure Air Temp Water Temp Dewpoint Dewpoint Depression Visibility Wind Speed Wind Dir Waves Ship Positions

Voyager Of The Seas

Operator: Royal Caribbean Cruises Ltd

Last reported at 2014-Jul-27 14:09 UTC. Time now 2014-Jul-28 04:20 UTC.
Position N 37°06' E 125°03'.

Type: Passenger vessel. MMSI: 311317000.

Date/timePositionNaut miles runAvg speedWind from/ knotsBaromVisibWave heightAir tempDewpointWater temp
2014-Jul-27 14:09N 37°06' E 125°03'811.9
2014-Jul-27 13:30N 37°09' E 124°54'1512.4
2014-Jul-27 12:20N 37°14' E 124°37'1012.5
2014-Jul-27 11:33N 37°19' E 124°26'1412.4
2014-Jul-27 10:25N 37°24' E 124°10'4912.1
2014-Jul-27 06:21N 37°43' E 123°13'1011.9
2014-Jul-27 05:31N 37°46' E 123°01'1212.1
2014-Jul-27 04:31N 37°51' E 122°47'1212.2
2014-Jul-27 03:33N 37°55' E 122°33'1312.4
2014-Jul-27 02:32N 37°59' E 122°18'4112.0
2014-Jul-26 23:07N 38°17' E 121°31'711.6
2014-Jul-26 22:33N 38°21' E 121°24'12812.8
2014-Jul-26 12:33N 38°48' E 118°43'1414.4
2014-Jul-26 11:33N 38°49' E 118°25'1313.4
2014-Jul-26 10:33N 38°54' E 118°09'1312.8
2014-Jul-26 09:33N 38°57' E 117°53'3 3.2
2014-Jul-26 08:31N 38°59' E 117°49'0 0.0
2014-Jul-26 07:28N 38°59' E 117°49'0 0.0
2014-Jul-26 06:31N 38°59' E 117°49'0 0.0
2014-Jul-26 05:28N 38°59' E 117°49'0 0.0
2014-Jul-26 04:31N 38°59' E 117°49'0 0.0
2014-Jul-26 03:28N 38°59' E 117°49'0 0.0
2014-Jul-26 02:31N 38°59' E 117°49'0 0.0
2014-Jul-26 01:31N 38°59' E 117°49'0 0.0
2014-Jul-26 00:31N 38°59' E 117°49'0 0.0
2014-Jul-25 23:31N 38°59' E 117°49'0 0.0
2014-Jul-25 22:28N 38°59' E 117°49'8 8.3
2014-Jul-25 21:34N 38°57' E 117°58'1312.7
2014-Jul-25 20:33N 38°52' E 118°14'19017.0
2014-Jul-25 09:24N 38°04' E 122°09'1518.2
2014-Jul-25 08:33N 37°55' E 122°25'1818.3
2014-Jul-25 07:33N 37°47' E 122°46'34914.4
2014-Jul-24 07:20N 35°02' E 129°08'3 4.3
2014-Jul-24 06:32N 35°05' E 129°05'0 0.0
2014-Jul-24 05:32N 35°05' E 129°05'0 0.0
2014-Jul-24 04:32N 35°05' E 129°05'0 0.0
2014-Jul-24 03:20N 35°05' E 129°05'0 0.0
2014-Jul-24 02:32N 35°05' E 129°05'0 0.0
2014-Jul-24 01:20N 35°05' E 129°05'0 0.0
2014-Jul-24 00:29N 35°05' E 129°05'0 0.0
2014-Jul-23 23:29N 35°05' E 129°05'0 0.0
2014-Jul-23 22:32N 35°05' E 129°05'0 0.0
2014-Jul-23 21:32N 35°05' E 129°05'5 5.1
2014-Jul-23 20:31N 35°01' E 129°09'418 8.5
2014-Jul-21 19:33N 38°18' E 121°29'2818.9
2014-Jul-21 18:06N 38°30' E 120°58'1419.1
2014-Jul-21 17:21N 38°33' E 120°40'1518.6
2014-Jul-21 16:33N 38°37' E 120°22'7517.4
2014-Jul-21 12:14N 38°48' E 118°47'1316.6
2014-Jul-21 11:26N 38°49' E 118°30'1516.5
2014-Jul-21 10:33N 38°52' E 118°12'1413.9
2014-Jul-21 09:33N 38°57' E 117°55'5 4.9
2014-Jul-21 08:33N 38°59' E 117°49'0 0.0
2014-Jul-21 07:33N 38°59' E 117°49'0 0.0
2014-Jul-21 06:33N 38°59' E 117°49'0 0.0
2014-Jul-21 05:33N 38°59' E 117°49'0 0.0
2014-Jul-21 04:33N 38°59' E 117°49'0 0.0
2014-Jul-21 03:33N 38°59' E 117°49'0 0.0
2014-Jul-21 02:33N 38°59' E 117°49'0 0.0
2014-Jul-21 01:33N 38°59' E 117°49'0 0.0
2014-Jul-21 00:33N 38°59' E 117°49'0 0.0
2014-Jul-20 23:33N 38°59' E 117°49'0 0.1
2014-Jul-20 22:33N 38°58' E 117°49'1010.1
2014-Jul-20 21:33N 38°56' E 118°02'9 8.6
2014-Jul-20 20:33N 38°53' E 118°12'14713.1
2014-Jul-20 09:20N 38°28' E 121°17'1113.8
2014-Jul-20 08:33N 38°23' E 121°30'1413.7
2014-Jul-20 07:33N 38°15' E 121°44'1413.9
2014-Jul-20 06:33N 38°08' E 121°59'1413.9
2014-Jul-20 05:33N 38°02' E 122°15'1414.2
2014-Jul-20 04:32N 37°54' E 122°30'2014.6
2014-Jul-20 03:11N 37°43' E 122°51'2314.1
2014-Jul-20 01:33N 37°25' E 123°09'13 0.3
2014-Jul-18 01:00N 37°12' E 123°12'6618.7 210 / 71014.0 0.3 25.020.723.0
2014-Jul-17 21:28N 38°00' E 122°16'1718.2
2014-Jul-17 20:33N 38°08' E 121°57'2217.8
2014-Jul-17 19:20N 38°18' E 121°32'1417.3
2014-Jul-17 18:32N 38°24' E 121°16'5217.7
2014-Jul-17 15:33N 38°38' E 120°12'  

Dump ship's entire track history